Location: Bacharowice
(49.9333°N, 19.5833°E)
Time: 08:40:55
(UTC+00:00)

Cosmos 1908 Rocket - Pass Details

Date: 30 September 2021
Orbit: 605 x 633 km, 82.5° (Epoch: 27 October)

Event Time Altitude Azimuth Distance (km) Brightness Sun altitude
Rises 02:15:12 0° 5° (N) 2,906 7.4 -23.5°
Reaches altitude 10° 02:18:48 10° 36° (NE) 1,987 7.0 -23.0°
Maximum altitude 02:20:38 12° 60° (ENE) 1,830 7.0 -22.7°
Drops below altitude 10° 02:22:27 10° 85° (E) 1,974 7.1 -22.4°
Sets 02:25:59 0° 116° (ESE) 2,866 7.6 -21.9°
